DAL1836 MDPC-KATL

Flight info

Callsign DAL1836
Flight time 3h 21m
Altitude 34000
Route PNA DCT SGO DCT MALVN Y396 RUMFO Y443 SUMAC Y280 OCTAL Q77 SHRKS DCT LAIRI DCT LARZZ JJEDI4
Aircraft A321/M-SDE3FGHIRWY/LB1

Departure

Time 2026-05-06 20:02
Airport Punta Cana International Airport (MDPC)

Arrival

Time 2026-05-06 23:24
Airport Hartsfield Jackson Atlanta International Airport (KATL)
Time Latitude Longitude Altitude Speed Heading
2026-05-06 18:20 18.56424 -68.37219 50 ft 0 kts 174°
2026-05-06 19:56 18.56435 -68.37220 50 ft 4 kts 178°
2026-05-06 19:56 18.56461 -68.37218 45 ft 4 kts 199°
2026-05-06 19:56 18.56482 -68.37204 50 ft 4 kts 243°
2026-05-06 19:57 18.56486 -68.37194 50 ft 0 kts 264°
2026-05-06 19:58 18.56485 -68.37206 50 ft 4 kts 264°
2026-05-06 19:59 18.56482 -68.37237 50 ft 4 kts 264°
2026-05-06 19:59 18.56480 -68.37259 49 ft 2 kts 265°
2026-05-06 19:59 18.56477 -68.37301 50 ft 11 kts 265°
2026-05-06 19:59 18.56470 -68.37394 50 ft 13 kts 265°
2026-05-06 20:00 18.56461 -68.37481 50 ft 11 kts 264°
2026-05-06 20:00 18.56454 -68.37558 50 ft 10 kts 264°
2026-05-06 20:00 18.56447 -68.37624 49 ft 8 kts 264°
2026-05-06 20:00 18.56442 -68.37678 50 ft 7 kts 265°
2026-05-06 20:01 18.56441 -68.37726 50 ft 9 kts 274°
2026-05-06 20:01 18.56518 -68.37786 51 ft 18 kts 353°
2026-05-06 20:01 18.56608 -68.37775 51 ft 7 kts 60°
2026-05-06 20:01 18.56612 -68.37756 51 ft 6 kts 81°
2026-05-06 20:02 18.56640 -68.37408 50 ft 91 kts 84°
2026-05-06 20:02 18.56724 -68.36480 53 ft 160 kts 84°
2026-05-06 20:02 18.56838 -68.35180 427 ft 182 kts 88°
2026-05-06 20:02 18.56943 -68.33857 1312 ft 181 kts 88°
2026-05-06 20:03 18.57070 -68.32523 2139 ft 182 kts 88°
2026-05-06 20:03 18.57325 -68.31224 2581 ft 188 kts 68°
2026-05-06 20:03 18.58270 -68.30220 2867 ft 203 kts 30°
2026-05-06 20:03 18.59669 -68.29876 3109 ft 217 kts 358°
2026-05-06 20:04 18.61086 -68.30478 3313 ft 226 kts 318°
2026-05-06 20:04 18.61948 -68.31872 3442 ft 237 kts 288°
2026-05-06 20:04 18.62518 -68.33577 3584 ft 257 kts 287°
2026-05-06 20:04 18.63142 -68.35439 3857 ft 276 kts 288°
2026-05-06 20:05 18.63805 -68.37372 4486 ft 284 kts 288°
2026-05-06 20:05 18.64498 -68.39340 5152 ft 289 kts 289°
2026-05-06 20:05 18.65205 -68.41331 5862 ft 291 kts 289°
2026-05-06 20:05 18.65916 -68.43332 6562 ft 291 kts 289°
2026-05-06 20:06 18.66625 -68.45339 7213 ft 292 kts 289°
2026-05-06 20:06 18.67336 -68.47349 7880 ft 293 kts 289°
2026-05-06 20:06 18.68048 -68.49368 8540 ft 294 kts 289°
2026-05-06 20:06 18.68763 -68.51395 9189 ft 295 kts 290°
2026-05-06 20:07 18.69478 -68.53420 9863 ft 295 kts 290°
2026-05-06 20:07 18.70210 -68.55491 10114 ft 311 kts 290°
2026-05-06 20:07 18.70988 -68.57698 10239 ft 330 kts 290°
2026-05-06 20:07 18.71816 -68.60061 10351 ft 348 kts 290°
2026-05-06 20:08 18.72671 -68.62513 10472 ft 364 kts 290°
2026-05-06 20:08 18.73545 -68.65023 10768 ft 373 kts 290°
2026-05-06 20:08 18.74454 -68.67633 11254 ft 376 kts 290°
2026-05-06 20:08 18.75364 -68.70235 11763 ft 379 kts 290°
2026-05-06 20:09 18.76282 -68.72850 12255 ft 382 kts 290°
2026-05-06 20:09 18.77212 -68.75497 12763 ft 385 kts 290°
2026-05-06 20:09 18.78142 -68.78154 13263 ft 388 kts 290°
2026-05-06 20:09 18.79078 -68.80832 13776 ft 390 kts 290°
2026-05-06 20:10 18.80023 -68.83537 14220 ft 392 kts 290°
2026-05-06 20:10 18.80965 -68.86241 14721 ft 393 kts 290°
2026-05-06 20:10 18.81907 -68.88944 15231 ft 392 kts 290°
2026-05-06 20:10 18.82849 -68.91643 15737 ft 392 kts 290°
2026-05-06 20:11 18.83794 -68.94350 16221 ft 393 kts 290°
2026-05-06 20:11 18.84745 -68.97078 16538 ft 398 kts 290°
2026-05-06 20:11 18.85699 -68.99817 17001 ft 400 kts 290°
2026-05-06 20:11 18.86662 -69.02583 17434 ft 401 kts 290°
2026-05-06 20:12 18.87624 -69.05346 17901 ft 402 kts 290°
2026-05-06 20:12 18.88591 -69.08127 18332 ft 404 kts 290°
2026-05-06 20:12 18.89563 -69.10921 18704 ft 406 kts 290°
2026-05-06 20:12 18.90538 -69.13731 19035 ft 409 kts 290°
2026-05-06 20:13 18.91519 -69.16559 19380 ft 411 kts 290°
2026-05-06 20:13 18.92507 -69.19401 19740 ft 413 kts 290°
2026-05-06 20:13 18.93498 -69.22254 20099 ft 415 kts 290°
2026-05-06 20:13 18.94171 -69.24195 20317 ft 417 kts 290°
2026-05-06 20:14 18.95171 -69.27080 20682 ft 419 kts 290°
2026-05-06 20:14 18.96174 -69.29976 21035 ft 421 kts 291°
2026-05-06 20:14 18.97183 -69.32890 21381 ft 423 kts 291°
2026-05-06 20:14 18.98194 -69.35815 21726 ft 425 kts 291°
2026-05-06 20:15 18.99210 -69.38748 22065 ft 427 kts 291°
2026-05-06 20:15 19.00233 -69.41703 22393 ft 429 kts 291°
2026-05-06 20:15 19.01261 -69.44679 22720 ft 431 kts 291°
2026-05-06 20:15 19.02290 -69.47666 23036 ft 434 kts 291°
2026-05-06 20:16 19.03324 -69.50671 23345 ft 436 kts 291°
2026-05-06 20:16 19.04360 -69.53686 23654 ft 438 kts 291°
2026-05-06 20:16 19.05401 -69.56714 23926 ft 439 kts 291°
2026-05-06 20:16 19.06444 -69.59754 24213 ft 440 kts 291°
2026-05-06 20:17 19.07490 -69.62798 24480 ft 442 kts 291°
2026-05-06 20:17 19.08542 -69.65856 24757 ft 443 kts 291°
2026-05-06 20:17 19.09594 -69.68914 25031 ft 444 kts 291°
2026-05-06 20:17 19.10655 -69.71990 25305 ft 445 kts 291°
2026-05-06 20:18 19.11715 -69.75063 25562 ft 446 kts 291°
2026-05-06 20:18 19.12777 -69.78147 25823 ft 448 kts 291°
2026-05-06 20:18 19.13841 -69.81251 26103 ft 449 kts 291°
2026-05-06 20:18 19.14901 -69.84358 26367 ft 450 kts 291°
2026-05-06 20:19 19.15965 -69.87475 26642 ft 451 kts 292°
2026-05-06 20:19 19.17046 -69.90644 26938 ft 452 kts 292°
2026-05-06 20:19 19.18102 -69.93739 27207 ft 453 kts 292°
2026-05-06 20:19 19.19171 -69.96869 27467 ft 454 kts 292°
2026-05-06 20:20 19.20244 -70.00010 27821 ft 453 kts 292°
2026-05-06 20:20 19.21328 -70.03178 28184 ft 451 kts 292°
2026-05-06 20:20 19.22391 -70.06291 28544 ft 449 kts 292°
2026-05-06 20:20 19.23434 -70.09354 28887 ft 448 kts 292°
2026-05-06 20:21 19.24503 -70.12492 29237 ft 446 kts 292°
2026-05-06 20:21 19.25555 -70.15578 29588 ft 445 kts 292°
2026-05-06 20:21 19.26601 -70.18655 29937 ft 444 kts 292°
2026-05-06 20:21 19.27642 -70.21721 30241 ft 442 kts 293°
2026-05-06 20:22 19.28680 -70.24780 30501 ft 441 kts 293°
2026-05-06 20:22 19.29714 -70.27833 30737 ft 441 kts 293°
2026-05-06 20:22 19.30753 -70.30896 30970 ft 442 kts 293°
2026-05-06 20:22 19.31791 -70.33963 31188 ft 442 kts 293°
2026-05-06 20:23 19.32829 -70.37029 31415 ft 442 kts 293°
2026-05-06 20:23 19.33869 -70.40092 31655 ft 443 kts 294°
2026-05-06 20:23 19.34912 -70.43161 31883 ft 443 kts 294°
2026-05-06 20:23 19.35955 -70.46234 32116 ft 443 kts 294°
2026-05-06 20:24 19.36992 -70.49302 32348 ft 444 kts 294°
2026-05-06 20:24 19.38030 -70.52376 32586 ft 444 kts 294°
2026-05-06 20:24 19.39080 -70.55459 32801 ft 444 kts 296°
2026-05-06 20:24 19.40427 -70.58376 33003 ft 438 kts 306°
2026-05-06 20:25 19.42205 -70.60967 33206 ft 434 kts 315°
2026-05-06 20:25 19.44357 -70.63168 33442 ft 429 kts 325°
2026-05-06 20:25 19.46760 -70.65036 33673 ft 428 kts 327°
2026-05-06 20:25 19.49174 -70.66892 33905 ft 428 kts 327°
2026-05-06 20:26 19.53965 -70.70617 34007 ft 425 kts 327°
2026-05-06 20:26 19.58714 -70.74327 34010 ft 424 kts 327°
2026-05-06 20:27 19.63468 -70.78033 34013 ft 425 kts 327°
2026-05-06 20:27 19.68263 -70.81767 34015 ft 425 kts 327°
2026-05-06 20:28 19.73038 -70.85483 34011 ft 425 kts 327°
2026-05-06 20:28 19.77792 -70.89195 34014 ft 424 kts 327°
2026-05-06 20:29 19.82528 -70.92901 34042 ft 422 kts 327°
2026-05-06 20:29 19.87254 -70.96595 34029 ft 421 kts 327°
2026-05-06 20:30 19.94329 -71.02123 34024 ft 420 kts 327°
2026-05-06 20:31 19.99042 -71.05807 34030 ft 420 kts 327°
2026-05-06 20:31 20.03746 -71.09487 34027 ft 420 kts 327°
2026-05-06 20:32 20.08446 -71.13169 34023 ft 420 kts 327°
2026-05-06 20:32 20.13146 -71.16856 34038 ft 419 kts 327°
2026-05-06 20:33 20.17834 -71.20533 34037 ft 418 kts 327°
2026-05-06 20:33 20.22515 -71.24211 34036 ft 418 kts 327°
2026-05-06 20:34 20.27199 -71.27886 34032 ft 418 kts 327°
2026-05-06 20:34 20.31869 -71.31568 34030 ft 418 kts 327°
2026-05-06 20:35 20.36580 -71.35278 34025 ft 418 kts 327°
2026-05-06 20:35 20.41171 -71.39009 34031 ft 420 kts 322°
2026-05-06 20:36 20.45033 -71.43757 34028 ft 426 kts 314°
2026-05-06 20:36 20.48741 -71.48735 34027 ft 426 kts 314°
2026-05-06 20:37 20.52427 -71.53697 34032 ft 426 kts 314°
2026-05-06 20:37 20.56108 -71.58648 34025 ft 426 kts 314°
2026-05-06 20:38 20.59793 -71.63598 34032 ft 426 kts 314°
2026-05-06 20:38 20.63476 -71.68539 34036 ft 425 kts 314°
2026-05-06 20:39 20.67150 -71.73494 34037 ft 425 kts 314°
2026-05-06 20:39 20.70817 -71.78446 34038 ft 425 kts 314°
2026-05-06 20:40 20.74491 -71.83406 34036 ft 425 kts 314°
2026-05-06 20:40 20.78160 -71.88358 34034 ft 425 kts 314°
2026-05-06 20:41 20.81830 -71.93314 34037 ft 425 kts 314°
2026-05-06 20:41 20.85491 -71.98274 34042 ft 425 kts 313°
2026-05-06 20:42 20.89143 -72.03231 34042 ft 424 kts 314°
2026-05-06 20:42 20.92801 -72.08194 34044 ft 424 kts 314°
2026-05-06 20:43 20.96451 -72.13146 34041 ft 424 kts 314°
2026-05-06 20:43 21.00101 -72.18104 34042 ft 424 kts 313°
2026-05-06 20:44 21.03751 -72.23064 34041 ft 424 kts 314°
2026-05-06 20:44 21.07425 -72.28060 34028 ft 424 kts 313°
2026-05-06 20:45 21.11077 -72.33030 34026 ft 425 kts 313°
2026-05-06 20:45 21.14730 -72.37995 34030 ft 425 kts 313°
2026-05-06 20:46 21.17771 -72.42141 34031 ft 425 kts 313°
2026-05-06 20:46 21.21422 -72.47122 34059 ft 425 kts 313°
2026-05-06 20:47 21.25068 -72.52107 34053 ft 425 kts 313°
2026-05-06 20:47 21.28713 -72.57095 34044 ft 424 kts 313°
2026-05-06 20:48 21.32352 -72.62073 34030 ft 424 kts 312°
2026-05-06 20:48 21.35993 -72.67055 34029 ft 425 kts 312°
2026-05-06 20:49 21.39640 -72.72052 34030 ft 425 kts 312°
2026-05-06 20:49 21.43284 -72.77059 34032 ft 426 kts 312°
2026-05-06 20:50 21.46954 -72.82104 34034 ft 426 kts 312°
2026-05-06 20:50 21.50601 -72.87116 34045 ft 426 kts 312°
2026-05-06 20:51 21.54251 -72.92133 34043 ft 426 kts 312°
2026-05-06 20:51 21.57892 -72.97153 34046 ft 426 kts 311°
2026-05-06 20:52 21.61527 -73.02181 34034 ft 426 kts 312°
2026-05-06 20:52 21.65173 -73.07206 34038 ft 426 kts 312°
2026-05-06 20:53 21.68816 -73.12237 34048 ft 427 kts 312°
2026-05-06 20:53 21.72463 -73.17278 34044 ft 427 kts 311°
2026-05-06 20:54 21.76100 -73.22318 34045 ft 427 kts 311°
2026-05-06 20:54 21.79742 -73.27363 34045 ft 427 kts 311°
2026-05-06 20:55 21.83379 -73.32407 34039 ft 427 kts 311°
2026-05-06 20:55 21.87018 -73.37457 34051 ft 427 kts 311°
2026-05-06 20:56 21.90667 -73.42524 34043 ft 428 kts 311°
2026-05-06 20:56 21.94309 -73.47589 34055 ft 428 kts 311°
2026-05-06 20:57 21.97954 -73.52659 34059 ft 428 kts 311°
2026-05-06 20:57 22.01621 -73.57763 34058 ft 428 kts 311°
2026-05-06 20:58 22.05260 -73.62837 34059 ft 428 kts 311°
2026-05-06 20:58 22.08901 -73.67914 34048 ft 428 kts 311°
2026-05-06 20:59 22.12546 -73.72995 34040 ft 428 kts 311°
2026-05-06 20:59 22.16191 -73.78080 34046 ft 429 kts 311°
2026-05-06 21:00 22.19829 -73.83176 34041 ft 429 kts 311°
2026-05-06 21:00 22.23472 -73.88293 34051 ft 429 kts 311°
2026-05-06 21:01 22.27109 -73.93400 34053 ft 429 kts 311°
2026-05-06 21:01 22.30750 -73.98504 34062 ft 429 kts 311°
2026-05-06 21:02 22.34393 -74.03602 34054 ft 429 kts 310°
2026-05-06 21:02 22.38037 -74.08727 34054 ft 430 kts 310°
2026-05-06 21:03 22.41674 -74.13857 34051 ft 430 kts 310°
2026-05-06 21:03 22.45324 -74.18999 34056 ft 430 kts 310°
2026-05-06 21:04 22.48964 -74.24133 34057 ft 430 kts 310°
2026-05-06 21:04 22.52602 -74.29271 34057 ft 430 kts 310°
2026-05-06 21:05 22.56269 -74.34435 34060 ft 430 kts 310°
2026-05-06 21:05 22.59906 -74.39575 34042 ft 430 kts 310°
2026-05-06 21:06 22.63541 -74.44740 34047 ft 431 kts 310°
2026-05-06 21:06 22.67186 -74.49907 34060 ft 432 kts 310°
2026-05-06 21:07 22.70839 -74.55073 34062 ft 432 kts 310°
2026-05-06 21:07 22.74481 -74.60240 34071 ft 432 kts 310°
2026-05-06 21:08 22.78116 -74.65410 34063 ft 431 kts 310°
2026-05-06 21:08 22.81756 -74.70593 34068 ft 432 kts 310°
2026-05-06 21:09 22.85394 -74.75765 34070 ft 431 kts 310°
2026-05-06 21:09 22.89027 -74.80943 34065 ft 431 kts 310°
2026-05-06 21:10 22.92647 -74.86121 34058 ft 431 kts 310°
2026-05-06 21:10 22.96279 -74.91305 34064 ft 431 kts 310°
2026-05-06 21:11 22.99907 -74.96496 34066 ft 431 kts 310°
2026-05-06 21:11 23.03528 -75.01688 34074 ft 432 kts 310°
2026-05-06 21:12 23.07177 -75.06917 34071 ft 431 kts 310°
2026-05-06 21:12 23.11197 -75.11682 34073 ft 427 kts 320°
2026-05-06 21:13 23.15569 -75.16040 34073 ft 427 kts 320°
2026-05-06 21:13 23.19941 -75.20413 34074 ft 427 kts 320°
2026-05-06 21:14 23.24297 -75.24790 34078 ft 427 kts 320°
2026-05-06 21:14 23.28656 -75.29170 34079 ft 427 kts 320°
2026-05-06 21:15 23.32941 -75.33470 34080 ft 427 kts 320°
2026-05-06 21:15 23.37306 -75.37860 34082 ft 426 kts 320°
2026-05-06 21:16 23.41670 -75.42257 34087 ft 426 kts 320°
2026-05-06 21:16 23.45983 -75.46593 34077 ft 425 kts 320°
2026-05-06 21:17 23.50332 -75.50961 34077 ft 425 kts 320°
2026-05-06 21:17 23.54655 -75.55326 34072 ft 424 kts 320°
2026-05-06 21:18 23.58980 -75.59702 34073 ft 424 kts 320°
2026-05-06 21:18 23.62567 -75.63336 34073 ft 424 kts 320°
2026-05-06 21:19 23.66899 -75.67716 34067 ft 424 kts 320°
2026-05-06 21:19 23.71232 -75.72092 34078 ft 424 kts 320°
2026-05-06 21:20 23.75582 -75.76500 34083 ft 424 kts 320°
2026-05-06 21:20 23.79902 -75.80883 34077 ft 423 kts 320°
2026-05-06 21:21 23.84209 -75.85263 34080 ft 423 kts 320°
2026-05-06 21:21 23.88519 -75.89645 34089 ft 423 kts 320°
2026-05-06 21:22 23.92826 -75.94028 34084 ft 423 kts 320°
2026-05-06 21:22 23.97123 -75.98406 34087 ft 423 kts 320°
2026-05-06 21:23 24.01428 -76.02785 34081 ft 422 kts 320°
2026-05-06 21:23 24.05721 -76.07165 34079 ft 422 kts 320°
2026-05-06 21:24 24.10002 -76.11545 34074 ft 421 kts 320°
2026-05-06 21:24 24.14290 -76.15931 34062 ft 421 kts 319°
2026-05-06 21:25 24.18576 -76.20316 34065 ft 422 kts 319°
2026-05-06 21:25 24.22858 -76.24702 34064 ft 421 kts 319°
2026-05-06 21:26 24.27137 -76.29080 34068 ft 421 kts 320°
2026-05-06 21:26 24.31421 -76.33465 34069 ft 421 kts 319°
2026-05-06 21:27 24.35698 -76.37853 34066 ft 421 kts 319°
2026-05-06 21:27 24.39977 -76.42249 34073 ft 421 kts 319°
2026-05-06 21:28 24.44252 -76.46649 34068 ft 421 kts 319°
2026-05-06 21:28 24.48523 -76.51054 34063 ft 421 kts 319°
2026-05-06 21:29 24.52786 -76.55452 34068 ft 420 kts 319°
2026-05-06 21:29 24.57071 -76.59877 34069 ft 420 kts 319°
2026-05-06 21:30 24.61319 -76.64273 34074 ft 419 kts 319°
2026-05-06 21:30 24.65565 -76.68663 34070 ft 419 kts 319°
2026-05-06 21:31 24.69810 -76.73056 34066 ft 419 kts 319°
2026-05-06 21:31 24.74048 -76.77445 34075 ft 419 kts 319°
2026-05-06 21:32 24.78291 -76.81838 34078 ft 419 kts 318°
2026-05-06 21:32 24.84641 -76.88428 34072 ft 417 kts 317°
2026-05-06 21:33 24.88852 -76.92815 34076 ft 416 kts 317°
2026-05-06 21:33 24.93061 -76.97198 34079 ft 416 kts 317°
2026-05-06 21:34 24.97256 -77.01572 34081 ft 415 kts 317°
2026-05-06 21:34 25.01453 -77.05954 34078 ft 415 kts 317°
2026-05-06 21:35 25.05643 -77.10331 34079 ft 415 kts 317°
2026-05-06 21:35 25.09834 -77.14711 34088 ft 414 kts 317°
2026-05-06 21:36 25.14016 -77.19085 34088 ft 414 kts 317°
2026-05-06 21:36 25.18214 -77.23482 34079 ft 413 kts 317°
2026-05-06 21:37 25.22385 -77.27859 34077 ft 414 kts 317°
2026-05-06 21:37 25.26555 -77.32238 34072 ft 414 kts 316°
2026-05-06 21:38 25.29923 -77.37382 34076 ft 418 kts 297°
2026-05-06 21:38 25.31979 -77.43421 34065 ft 420 kts 293°
2026-05-06 21:39 25.33954 -77.49502 34065 ft 420 kts 293°
2026-05-06 21:39 25.35928 -77.55580 34061 ft 420 kts 293°
2026-05-06 21:40 25.37905 -77.61656 34053 ft 420 kts 292°
2026-05-06 21:40 25.39880 -77.67737 34054 ft 421 kts 292°
2026-05-06 21:41 25.41853 -77.73840 34056 ft 421 kts 292°
2026-05-06 21:41 25.43741 -77.79966 34059 ft 422 kts 290°
2026-05-06 21:42 25.45324 -77.86225 34078 ft 422 kts 288°
2026-05-06 21:42 25.46801 -77.92503 34081 ft 422 kts 288°
2026-05-06 21:43 25.48325 -77.98762 34077 ft 421 kts 288°
2026-05-06 21:43 25.49898 -78.05007 34077 ft 421 kts 288°
2026-05-06 21:44 25.51465 -78.11248 34069 ft 421 kts 288°
2026-05-06 21:44 25.53029 -78.17531 34067 ft 420 kts 288°
2026-05-06 21:45 25.54578 -78.23767 34067 ft 420 kts 288°
2026-05-06 21:45 25.56121 -78.30012 34062 ft 420 kts 288°
2026-05-06 21:46 25.57661 -78.36252 34063 ft 420 kts 288°
2026-05-06 21:46 25.59205 -78.42497 34066 ft 420 kts 288°
2026-05-06 21:47 25.60744 -78.48744 34059 ft 420 kts 288°
2026-05-06 21:47 25.62278 -78.54996 34060 ft 420 kts 288°
2026-05-06 21:48 25.63807 -78.61233 34057 ft 420 kts 288°
2026-05-06 21:48 25.65339 -78.67482 34054 ft 419 kts 288°
2026-05-06 21:49 25.66862 -78.73721 34048 ft 420 kts 288°
2026-05-06 21:49 25.68388 -78.79967 34055 ft 420 kts 288°
2026-05-06 21:50 25.69911 -78.86214 34056 ft 420 kts 288°
2026-05-06 21:50 25.71430 -78.92469 34064 ft 420 kts 288°
2026-05-06 21:51 25.72945 -78.98718 34061 ft 420 kts 288°
2026-05-06 21:51 25.74464 -79.04990 34064 ft 421 kts 287°
2026-05-06 21:52 25.75733 -79.10242 34070 ft 421 kts 287°
2026-05-06 21:52 25.77243 -79.16509 34073 ft 421 kts 287°
2026-05-06 21:53 25.78753 -79.22777 34072 ft 420 kts 287°
2026-05-06 21:53 25.80251 -79.29044 34073 ft 420 kts 287°
2026-05-06 21:54 25.81745 -79.35306 34074 ft 420 kts 287°
2026-05-06 21:54 25.83240 -79.41557 34072 ft 419 kts 287°
2026-05-06 21:55 25.84738 -79.47821 34064 ft 419 kts 287°
2026-05-06 21:55 25.86229 -79.54071 34066 ft 419 kts 287°
2026-05-06 21:56 25.87727 -79.60374 34067 ft 419 kts 287°
2026-05-06 21:56 25.89211 -79.66622 34076 ft 418 kts 287°
2026-05-06 21:57 25.90689 -79.72874 34076 ft 418 kts 286°
2026-05-06 21:57 25.92024 -79.78293 34072 ft 417 kts 291°
2026-05-06 21:58 25.94730 -79.83960 34065 ft 416 kts 302°
2026-05-06 21:58 25.97801 -79.89417 34064 ft 416 kts 302°
2026-05-06 21:59 26.00745 -79.94676 34066 ft 416 kts 302°
2026-05-06 21:59 26.03804 -80.00151 34070 ft 416 kts 302°
2026-05-06 22:00 26.06853 -80.05617 34067 ft 416 kts 301°
2026-05-06 22:00 26.09908 -80.11089 34069 ft 416 kts 302°
2026-05-06 22:01 26.12994 -80.16531 34066 ft 416 kts 306°
2026-05-06 22:01 26.17195 -80.20931 34072 ft 420 kts 326°
2026-05-06 22:02 26.22565 -80.23603 34069 ft 424 kts 335°
2026-05-06 22:02 26.28097 -80.26031 34083 ft 424 kts 334°
2026-05-06 22:03 26.33586 -80.28457 34089 ft 424 kts 334°
2026-05-06 22:03 26.39066 -80.30875 34088 ft 424 kts 334°
2026-05-06 22:04 26.44558 -80.33304 34085 ft 424 kts 334°
2026-05-06 22:04 26.50045 -80.35729 34082 ft 424 kts 334°
2026-05-06 22:05 26.55524 -80.38153 34097 ft 424 kts 334°
2026-05-06 22:05 26.61005 -80.40582 34093 ft 423 kts 334°
2026-05-06 22:06 26.66473 -80.42995 34087 ft 423 kts 334°
2026-05-06 22:06 26.71945 -80.45419 34084 ft 423 kts 334°
2026-05-06 22:07 26.77410 -80.47847 34074 ft 422 kts 334°
2026-05-06 22:07 26.82872 -80.50279 34074 ft 422 kts 334°
2026-05-06 22:08 26.88331 -80.52709 34089 ft 422 kts 334°
2026-05-06 22:08 26.93780 -80.55140 34089 ft 421 kts 334°
2026-05-06 22:09 26.99257 -80.57579 34083 ft 421 kts 334°
2026-05-06 22:09 27.04698 -80.60007 34081 ft 420 kts 334°
2026-05-06 22:10 27.10126 -80.62434 34067 ft 420 kts 334°
2026-05-06 22:10 27.15561 -80.64870 34063 ft 420 kts 334°
2026-05-06 22:11 27.20906 -80.67462 34075 ft 418 kts 331°
2026-05-06 22:11 27.26128 -80.70318 34073 ft 417 kts 330°
2026-05-06 22:12 27.31333 -80.73192 34059 ft 417 kts 330°
2026-05-06 22:12 27.36548 -80.76027 34070 ft 417 kts 330°
2026-05-06 22:13 27.41787 -80.78830 34057 ft 416 kts 330°
2026-05-06 22:13 27.47020 -80.81623 34061 ft 416 kts 330°
2026-05-06 22:14 27.52252 -80.84412 34052 ft 416 kts 331°
2026-05-06 22:14 27.57495 -80.87204 34054 ft 416 kts 330°
2026-05-06 22:15 27.62727 -80.90006 34060 ft 416 kts 330°
2026-05-06 22:15 27.67947 -80.92818 34035 ft 416 kts 330°
2026-05-06 22:16 27.73172 -80.95644 34041 ft 416 kts 330°
2026-05-06 22:16 27.78427 -80.98488 34046 ft 416 kts 330°
2026-05-06 22:17 27.83653 -81.01315 34067 ft 416 kts 330°
2026-05-06 22:17 27.88867 -81.04130 34050 ft 415 kts 330°
2026-05-06 22:18 27.94086 -81.06947 34046 ft 415 kts 330°
2026-05-06 22:18 27.99291 -81.09768 34048 ft 415 kts 330°
2026-05-06 22:19 28.04495 -81.12598 34051 ft 415 kts 330°
2026-05-06 22:19 28.09697 -81.15422 34070 ft 415 kts 330°
2026-05-06 22:20 28.14014 -81.17765 34071 ft 414 kts 330°
2026-05-06 22:20 28.20084 -81.21066 34073 ft 414 kts 330°
2026-05-06 22:21 28.25268 -81.23893 34069 ft 413 kts 330°
2026-05-06 22:21 28.30444 -81.26722 34059 ft 413 kts 330°
2026-05-06 22:22 28.35627 -81.29551 34052 ft 413 kts 330°
2026-05-06 22:22 28.40810 -81.32379 34065 ft 413 kts 329°
2026-05-06 22:23 28.45995 -81.35214 34062 ft 413 kts 329°
2026-05-06 22:23 28.51174 -81.38049 34059 ft 413 kts 329°
2026-05-06 22:24 28.55460 -81.40400 34058 ft 413 kts 329°
2026-05-06 22:24 28.60611 -81.43221 34057 ft 413 kts 329°
2026-05-06 22:25 28.65788 -81.46064 34056 ft 413 kts 329°
2026-05-06 22:25 28.70965 -81.48912 34084 ft 413 kts 329°
2026-05-06 22:26 28.76130 -81.51759 34076 ft 412 kts 329°
2026-05-06 22:26 28.81325 -81.54626 34072 ft 412 kts 329°
2026-05-06 22:27 28.86482 -81.57470 34072 ft 412 kts 329°
2026-05-06 22:27 28.91680 -81.60222 34066 ft 415 kts 335°
2026-05-06 22:28 28.97448 -81.61363 34063 ft 426 kts 349°
2026-05-06 22:28 29.03371 -81.61887 34078 ft 427 kts 348°
2026-05-06 22:29 29.09268 -81.62423 34072 ft 426 kts 348°
2026-05-06 22:29 29.15163 -81.62962 34069 ft 426 kts 348°
2026-05-06 22:30 29.21036 -81.63495 34068 ft 426 kts 348°
2026-05-06 22:30 29.26947 -81.64033 34067 ft 426 kts 348°
2026-05-06 22:31 29.32772 -81.64572 34083 ft 427 kts 348°
2026-05-06 22:31 29.38698 -81.65116 34076 ft 427 kts 348°
2026-05-06 22:32 29.44562 -81.65654 34060 ft 427 kts 348°
2026-05-06 22:32 29.50438 -81.66194 34047 ft 428 kts 348°
2026-05-06 22:33 29.56365 -81.66747 34044 ft 428 kts 348°
2026-05-06 22:33 29.62283 -81.67327 34062 ft 428 kts 347°
2026-05-06 22:34 29.68275 -81.67890 34060 ft 429 kts 348°
2026-05-06 22:34 29.74233 -81.68414 34056 ft 429 kts 348°
2026-05-06 22:35 29.80186 -81.68941 34059 ft 429 kts 348°
2026-05-06 22:35 29.86142 -81.69492 34080 ft 429 kts 348°
2026-05-06 22:36 29.92099 -81.70048 34059 ft 429 kts 348°
2026-05-06 22:36 29.98058 -81.70606 34057 ft 430 kts 348°
2026-05-06 22:37 30.04009 -81.71158 34048 ft 429 kts 348°
2026-05-06 22:37 30.09964 -81.71716 34041 ft 429 kts 348°
2026-05-06 22:38 30.15917 -81.72277 34062 ft 429 kts 348°
2026-05-06 22:38 30.21843 -81.72832 34051 ft 428 kts 348°
2026-05-06 22:39 30.27776 -81.73388 34065 ft 428 kts 348°
2026-05-06 22:39 30.33711 -81.73947 34059 ft 428 kts 348°
2026-05-06 22:40 30.39647 -81.74502 34031 ft 428 kts 348°
2026-05-06 22:40 30.45613 -81.75060 34024 ft 427 kts 348°
2026-05-06 22:41 30.54509 -81.75889 34020 ft 427 kts 348°
2026-05-06 22:42 30.60424 -81.76501 34014 ft 423 kts 343°
2026-05-06 22:42 30.65858 -81.78657 34015 ft 408 kts 328°
2026-05-06 22:43 30.70933 -81.81608 34047 ft 408 kts 327°
2026-05-06 22:43 30.76028 -81.84557 34030 ft 410 kts 328°
2026-05-06 22:44 30.81153 -81.87515 34033 ft 412 kts 328°
2026-05-06 22:44 30.86295 -81.90496 34006 ft 413 kts 328°
2026-05-06 22:45 30.91453 -81.93494 34005 ft 414 kts 327°
2026-05-06 22:45 30.96602 -81.96491 34021 ft 415 kts 327°
2026-05-06 22:46 31.01776 -81.99495 34040 ft 415 kts 327°
2026-05-06 22:46 31.06937 -82.02494 34024 ft 414 kts 327°
2026-05-06 22:47 31.12088 -82.05502 34025 ft 414 kts 327°
2026-05-06 22:47 31.17236 -82.08511 34023 ft 413 kts 327°
2026-05-06 22:48 31.22377 -82.11525 34034 ft 413 kts 327°
2026-05-06 22:48 31.27514 -82.14542 34025 ft 413 kts 327°
2026-05-06 22:49 31.32657 -82.17554 34056 ft 412 kts 326°
2026-05-06 22:49 31.37767 -82.20541 34052 ft 410 kts 326°
2026-05-06 22:50 31.42898 -82.23547 34052 ft 409 kts 326°
2026-05-06 22:50 31.47942 -82.26526 34048 ft 408 kts 326°
2026-05-06 22:51 31.53003 -82.29534 34044 ft 407 kts 326°
2026-05-06 22:51 31.58095 -82.32554 34063 ft 407 kts 326°
2026-05-06 22:52 31.63145 -82.35535 34055 ft 406 kts 326°
2026-05-06 22:52 31.68176 -82.38509 34047 ft 405 kts 326°
2026-05-06 22:53 31.73210 -82.41486 34029 ft 405 kts 326°
2026-05-06 22:53 31.77390 -82.43964 34022 ft 406 kts 326°
2026-05-06 22:54 31.82448 -82.46957 34007 ft 407 kts 326°
2026-05-06 22:54 31.87508 -82.49956 34045 ft 408 kts 325°
2026-05-06 22:55 31.92563 -82.52971 34041 ft 407 kts 325°
2026-05-06 22:55 31.97428 -82.56316 34028 ft 395 kts 314°
2026-05-06 22:56 32.01584 -82.60516 34025 ft 394 kts 313°
2026-05-06 22:56 32.05725 -82.64738 34025 ft 393 kts 313°
2026-05-06 22:57 32.09856 -82.68963 34022 ft 393 kts 313°
2026-05-06 22:57 32.13988 -82.73190 34046 ft 393 kts 312°
2026-05-06 22:58 32.18119 -82.77417 34033 ft 393 kts 312°
2026-05-06 22:58 32.22246 -82.81645 34026 ft 393 kts 312°
2026-05-06 22:59 32.26372 -82.85876 34018 ft 393 kts 312°
2026-05-06 22:59 32.30503 -82.90109 34009 ft 393 kts 312°
2026-05-06 23:00 32.34633 -82.94352 33999 ft 393 kts 312°
2026-05-06 23:00 32.38791 -82.98634 34004 ft 393 kts 312°
2026-05-06 23:01 32.42891 -83.02857 34047 ft 394 kts 312°
2026-05-06 23:01 32.44958 -83.04986 33716 ft 395 kts 312°
2026-05-06 23:01 32.47046 -83.07139 32643 ft 392 kts 312°
2026-05-06 23:01 32.49092 -83.09245 31865 ft 388 kts 312°
2026-05-06 23:02 32.51136 -83.11352 31062 ft 392 kts 313°
2026-05-06 23:02 32.53199 -83.13484 30261 ft 397 kts 313°
2026-05-06 23:02 32.55297 -83.15660 29288 ft 402 kts 313°
2026-05-06 23:02 32.57404 -83.17844 28382 ft 405 kts 313°
2026-05-06 23:03 32.59541 -83.20055 27350 ft 410 kts 313°
2026-05-06 23:03 32.61707 -83.22296 26280 ft 417 kts 313°
2026-05-06 23:03 32.63900 -83.24567 25387 ft 419 kts 313°
2026-05-06 23:03 32.66091 -83.26831 24642 ft 418 kts 314°
2026-05-06 23:04 32.68282 -83.29096 23888 ft 416 kts 313°
2026-05-06 23:04 32.70459 -83.31354 23086 ft 415 kts 313°
2026-05-06 23:04 32.72619 -83.33600 22391 ft 410 kts 313°
2026-05-06 23:04 32.74758 -83.35825 21706 ft 405 kts 313°
2026-05-06 23:05 32.76859 -83.38014 21026 ft 400 kts 313°
2026-05-06 23:05 32.78956 -83.40210 19972 ft 406 kts 313°
2026-05-06 23:05 32.81055 -83.42406 19511 ft 397 kts 313°
2026-05-06 23:05 32.83109 -83.44548 18977 ft 390 kts 313°
2026-05-06 23:06 32.85141 -83.46666 18463 ft 384 kts 313°
2026-05-06 23:06 32.87139 -83.48746 17958 ft 378 kts 313°
2026-05-06 23:06 32.89077 -83.50763 17795 ft 362 kts 313°
2026-05-06 23:06 32.90935 -83.52704 17606 ft 349 kts 312°
2026-05-06 23:07 32.92735 -83.54600 17278 ft 342 kts 312°
2026-05-06 23:07 32.94531 -83.56498 17022 ft 341 kts 312°
2026-05-06 23:07 32.96306 -83.58372 16768 ft 340 kts 312°
2026-05-06 23:07 32.98080 -83.60245 16217 ft 342 kts 312°
2026-05-06 23:08 32.99863 -83.62125 15638 ft 344 kts 312°
2026-05-06 23:08 33.01639 -83.63990 15287 ft 338 kts 312°
2026-05-06 23:08 33.03397 -83.65836 14806 ft 336 kts 312°
2026-05-06 23:08 33.05157 -83.67684 14285 ft 333 kts 312°
2026-05-06 23:09 33.06874 -83.69484 13392 ft 330 kts 312°
2026-05-06 23:09 33.08596 -83.71284 12560 ft 326 kts 312°
2026-05-06 23:09 33.10245 -83.73003 12348 ft 303 kts 312°
2026-05-06 23:09 33.11797 -83.74618 12011 ft 290 kts 312°
2026-05-06 23:10 33.13305 -83.76201 11775 ft 287 kts 312°
2026-05-06 23:10 33.14793 -83.77775 11530 ft 285 kts 312°
2026-05-06 23:10 33.16262 -83.79338 11294 ft 284 kts 312°
2026-05-06 23:10 33.17744 -83.80910 11052 ft 283 kts 312°
2026-05-06 23:11 33.19215 -83.82477 10815 ft 282 kts 311°
2026-05-06 23:11 33.20632 -83.84081 10491 ft 280 kts 310°
2026-05-06 23:11 33.22009 -83.85718 10109 ft 279 kts 309°
2026-05-06 23:11 33.23368 -83.87364 9712 ft 278 kts 309°
2026-05-06 23:12 33.24722 -83.89011 9309 ft 277 kts 309°
2026-05-06 23:12 33.26074 -83.90644 8928 ft 276 kts 309°
2026-05-06 23:12 33.27422 -83.92267 8547 ft 276 kts 309°
2026-05-06 23:12 33.28777 -83.93893 8170 ft 275 kts 309°
2026-05-06 23:13 33.30119 -83.95502 7997 ft 274 kts 310°
2026-05-06 23:13 33.31611 -83.96954 7903 ft 280 kts 326°
2026-05-06 23:13 33.33407 -83.97901 7497 ft 284 kts 333°
2026-05-06 23:13 33.35249 -83.98751 7093 ft 284 kts 334°
2026-05-06 23:14 33.37120 -83.99610 6690 ft 284 kts 334°
2026-05-06 23:14 33.38964 -84.00452 6298 ft 283 kts 334°
2026-05-06 23:14 33.40794 -84.01301 5887 ft 282 kts 334°
2026-05-06 23:14 33.42605 -84.02134 5463 ft 282 kts 334°
2026-05-06 23:15 33.44433 -84.02979 5074 ft 281 kts 334°
2026-05-06 23:15 33.46272 -84.03840 4746 ft 280 kts 334°
2026-05-06 23:15 33.48076 -84.04690 4351 ft 278 kts 334°
2026-05-06 23:15 33.49872 -84.05536 4038 ft 275 kts 334°
2026-05-06 23:16 33.51653 -84.06378 3984 ft 275 kts 334°
2026-05-06 23:16 33.53441 -84.07219 3991 ft 276 kts 334°
2026-05-06 23:16 33.55233 -84.08055 3996 ft 275 kts 334°
2026-05-06 23:16 33.57021 -84.08871 3996 ft 275 kts 334°
2026-05-06 23:17 33.58800 -84.09676 3992 ft 267 kts 334°
2026-05-06 23:17 33.60508 -84.10462 3993 ft 262 kts 333°
2026-05-06 23:17 33.62234 -84.11233 4002 ft 266 kts 335°
2026-05-06 23:17 33.63920 -84.12068 3995 ft 257 kts 321°
2026-05-06 23:18 33.65099 -84.13579 3995 ft 246 kts 291°
2026-05-06 23:18 33.65450 -84.15491 3995 ft 229 kts 262°
2026-05-06 23:18 33.64880 -84.17211 4035 ft 222 kts 238°
2026-05-06 23:18 33.64099 -84.18798 4012 ft 214 kts 239°
2026-05-06 23:19 33.63488 -84.20290 3991 ft 186 kts 252°
2026-05-06 23:19 33.63268 -84.21747 4015 ft 170 kts 262°
2026-05-06 23:19 33.63204 -84.23134 3892 ft 164 kts 264°
2026-05-06 23:19 33.63183 -84.24493 3715 ft 163 kts 264°
2026-05-06 23:20 33.63176 -84.25847 3517 ft 162 kts 265°
2026-05-06 23:20 33.63174 -84.27194 3323 ft 162 kts 265°
2026-05-06 23:20 33.63175 -84.28528 3132 ft 159 kts 265°
2026-05-06 23:20 33.63175 -84.29861 2908 ft 159 kts 265°
2026-05-06 23:21 33.63178 -84.31128 2713 ft 144 kts 265°
2026-05-06 23:21 33.63179 -84.32308 2529 ft 141 kts 265°
2026-05-06 23:21 33.63179 -84.33477 2342 ft 140 kts 266°
2026-05-06 23:21 33.63180 -84.34644 2162 ft 137 kts 266°
2026-05-06 23:22 33.63180 -84.35785 1980 ft 137 kts 264°
2026-05-06 23:22 33.63181 -84.36923 1796 ft 136 kts 265°
2026-05-06 23:22 33.63182 -84.38061 1659 ft 137 kts 266°
2026-05-06 23:22 33.63180 -84.39207 1475 ft 141 kts 265°
2026-05-06 23:23 33.63175 -84.40373 1327 ft 139 kts 268°
2026-05-06 23:23 33.63182 -84.41527 1136 ft 138 kts 266°
2026-05-06 23:23 33.63183 -84.42649 1037 ft 124 kts 268°
2026-05-06 23:23 33.63181 -84.43425 1037 ft 63 kts 269°
2026-05-06 23:24 33.63182 -84.43846 1034 ft 49 kts 270°
2026-05-06 23:24 33.63224 -84.44151 1035 ft 27 kts 296°
2026-05-06 23:24 33.63279 -84.44256 1035 ft 8 kts 318°
2026-05-06 23:24 33.63332 -84.44266 1035 ft 11 kts 22°
2026-05-06 23:25 33.63414 -84.44204 1035 ft 16 kts 13°
2026-05-06 23:25 33.63528 -84.44194 1037 ft 15 kts
2026-05-06 23:25 33.63582 -84.44112 1037 ft 13 kts 86°
2026-05-06 23:25 33.63582 -84.44006 1036 ft 12 kts 90°
2026-05-06 23:26 33.63582 -84.43939 1036 ft 12 kts 90°
2026-05-06 23:26 33.63583 -84.43845 1036 ft 11 kts 89°
2026-05-06 23:26 33.63583 -84.43734 1036 ft 16 kts 90°
2026-05-06 23:26 33.63582 -84.43603 1035 ft 15 kts 91°
2026-05-06 23:27 33.63581 -84.43477 1035 ft 15 kts 90°
2026-05-06 23:27 33.63582 -84.43356 1034 ft 14 kts 89°
2026-05-06 23:27 33.63583 -84.43244 1035 ft 13 kts 89°
2026-05-06 23:27 33.63584 -84.43125 1035 ft 17 kts 90°
2026-05-06 23:28 33.63582 -84.42957 1035 ft 21 kts 90°
2026-05-06 23:28 33.63582 -84.42825 1035 ft 12 kts 89°
2026-05-06 23:28 33.63627 -84.42769 1036 ft 13 kts 19°
2026-05-06 23:28 33.63753 -84.42737 1036 ft 20 kts
2026-05-06 23:29 33.63891 -84.42734 1036 ft 19 kts 360°
2026-05-06 23:29 33.64019 -84.42735 1036 ft 18 kts 359°
2026-05-06 23:29 33.64140 -84.42735 1036 ft 17 kts
2026-05-06 23:29 33.64253 -84.42735 1036 ft 16 kts 360°
2026-05-06 23:30 33.64335 -84.42729 1036 ft 7 kts 25°
2026-05-06 23:30 33.64352 -84.42684 1035 ft 5 kts 86°
2026-05-06 23:30 33.64352 -84.42643 1035 ft 4 kts 89°
2026-05-06 23:30 33.64352 -84.42630 1035 ft 1 kts 89°
2026-05-06 23:31 33.64352 -84.42629 1035 ft 0 kts 89°